sat.trackr.live / text

‹ back to catalog

STARLINK-32542

NORAD 62177 · 2024-225Q

PAYLOAD ACTIVE UNKNOWN

§ Identity

Operator
Country
US
Launch date
2024-11-30
Launch site
AFWTR
Launch vehicle
Mass (kg)
RCS (m²)

Purposes: comms

External: N2YO · Heavens-Above · Gunter

§ Orbital elements

Epoch: 2026-09-21T18:13:32.614464Z

Period
96.08 min
Inclination
70.0022°
Eccentricity
0.0002661
Mean motion
14.98679593 rev/d
Perigee alt
569.1 km
Apogee alt
572.8 km
Semi-major
6,949.1 km
B*
9.9681e-3
RAAN
30.1198°
Arg perigee
279.6800°
Mean anomaly
80.4059°
Rev number
9,924

§ Raw data

STARLINK-325421 62177U 24225Q   26264.75940526  .00122037  00000+0  99681-2 0  99952 62177  70.0022  30.1198 0002661 279.6800  80.4059 14.98679593 99246

JSON: /api/v1/satellites/62177 · /tle

For live sub-satellite position, see the globe view (requires WebGL).

§ Visibility from observer

Set your observer location to see the next 7 days of passes ≥ 10°. The values pass through the URL so the page stays shareable.

No JS? Fill the form by hand. The geolocation button needs JavaScript.